Logan, UT

10:16 PM MST on December 12, 2019 (GMT -0700)
Logan-Cache

Weather History for KLGU - October, 2019

Change the Weather History Date:

Saturday, October 26, 2019

  Actual Average Record
Temperature  
Mean Temperature 42 °F -  
Max Temperature 57 °F 59 °F 73 °F (1962)
Min Temperature 27 °F 30 °F 19 °F (1984)
Degree Days  
Heating Degree Days 23    
Moisture  
Dew Point 25 °F    
Average Humidity 62    
Maximum Humidity 89    
Minimum Humidity 27    
Precipitation  
Precipitation 0.00 in - - ()
Sea Level Pressure  
Sea Level Pressure 29.91 in    
Wind  
Wind Speed 5 mph ()    
Max Wind Speed 22 mph    
Max Gust Speed -    
Visibility 10.0 miles    
Events      
Averages and records for this station are not official NWS values.
T = Trace of Precipitation, MM = Missing Value Source: Averaged Metar Reports

Daily Weather History Graph

Daily Weather History Graph

Search for Another Location

Airport or City:

Astronomy

Oct. 26, 2019 Rise Set
Actual Time 7:52 AM MDT 6:29 PM MDT
Civil Twilight 7:23 AM MDT 6:58 PM MDT
Nautical Twilight 6:51 AM MDT 7:30 PM MDT
Astronomical Twilight 6:18 AM MDT 8:03 PM MDT
Moon 5:49 AM MDT (10/26) 6:09 PM MDT (10/26)
Length of Visible Light 11h 34m
Length of Day
10h 37m
Waning Crescent, 3% of the Moon is Illuminated
Oct 26
Waning Crescent
Oct 27
New
Nov 4
First Quarter
Nov 12
Full
Nov 19
Last Quarter

Hourly Weather History & Observations

Time (MDT) Temp. Windchill Dew Point Humidity Pressure Visibility Wind Dir Wind Speed Gust Speed Precip Events Conditions
12:51 AM 36.0 °F 33.3 °F 27.0 °F 70% 30.08 in 10.0 mi SW 3.5 mph - N/A   Clear
1:51 AM 32.0 °F - 26.1 °F 79% 30.06 in 10.0 mi Calm Calm - N/A   Clear
2:51 AM 30.9 °F - 26.1 °F 82% 30.03 in 10.0 mi Calm Calm - N/A   Clear
3:51 AM 28.0 °F - 24.1 °F 85% 30.00 in 10.0 mi Calm Calm - N/A   Clear
4:51 AM 28.9 °F - 24.1 °F 82% 29.96 in 10.0 mi Calm Calm - N/A   Clear
5:51 AM 28.9 °F 23.9 °F 25.0 °F 85% 29.94 in 10.0 mi South 4.6 mph - N/A   Clear
6:51 AM 27.0 °F 21.6 °F 24.1 °F 89% 29.95 in 10.0 mi ENE 4.6 mph - N/A   Clear
7:51 AM 27.0 °F 23.0 °F 23.0 °F 85% 29.93 in 10.0 mi SE 3.5 mph - N/A   Clear
8:51 AM 35.1 °F 29.3 °F 27.0 °F 72% 29.91 in 10.0 mi NE 6.9 mph - N/A   Clear
9:51 AM 46.9 °F - 30.9 °F 54% 29.90 in 10.0 mi North 8.1 mph - N/A   Clear
10:51 AM 53.1 °F - 28.0 °F 38% 29.88 in - NNW 9.2 mph - N/A   Clear
11:51 AM 55.0 °F - 30.9 °F 40% 29.85 in 10.0 mi West 5.8 mph - N/A   Clear
12:51 PM 57.0 °F - 34.0 °F 42% 29.82 in 10.0 mi North 19.6 mph - N/A   Mostly Cloudy
1:51 PM 54.0 °F - 32.0 °F 43% 29.82 in 10.0 mi North 21.9 mph - N/A   Scattered Clouds
2:51 PM 51.1 °F - 19.0 °F 28% 29.83 in 10.0 mi North 18.4 mph - N/A   Mostly Cloudy
3:51 PM 48.9 °F - 16.0 °F 27% 29.84 in 10.0 mi North 9.2 mph - N/A   Overcast
4:51 PM 45.0 °F 38.5 °F 17.1 °F 33% 29.86 in 10.0 mi North 13.8 mph - N/A   Overcast
5:51 PM 44.1 °F 37.7 °F 18.0 °F 35% 29.87 in 10.0 mi NNW 12.7 mph - N/A   Overcast
6:51 PM 39.9 °F 35.1 °F 21.9 °F 49% 29.88 in 10.0 mi NNW 6.9 mph - N/A   Overcast
7:51 PM 36.0 °F 28.5 °F 21.9 °F 57% 29.91 in 10.0 mi NW 10.4 mph - N/A   Clear
8:51 PM 35.1 °F 26.4 °F 24.1 °F 64% 29.90 in 10.0 mi North 12.7 mph - N/A   Partly Cloudy
9:51 PM 32.0 °F 24.2 °F 26.1 °F 79% 29.88 in 10.0 mi North 9.2 mph - N/A   Clear
10:51 PM 30.9 °F 27.5 °F 26.1 °F 82% 29.89 in 10.0 mi North 3.5 mph - N/A   Clear
11:51 PM 30.9 °F 26.2 °F 26.1 °F 82% 29.90 in 10.0 mi WSW 4.6 mph - N/A   Clear